Weather History for Roseburg, OR

Change the Weather History Date:

Friday, May 31, 2013

  Actual Average Record
Temperature  
Mean Temperature 61 °F 61 °F  
Max Temperature 76 °F 73 °F 96 °F (2001)
Min Temperature 45 °F 50 °F 35 °F (1976)
Degree Days  
Heating Degree Days 4 5  
Month to date heating degree days 148 218  
Since 1 July heating degree days 3596 3983  
Cooling Degree Days 0 1  
Month to date cooling degree days 32 19  
Year to date cooling degree days 34 20  
Growing Degree Days 10 (Base 50)    
Moisture  
Dew Point 44 °F    
Average Humidity 62    
Maximum Humidity 93    
Minimum Humidity 31    
Precipitation  
Precipitation 0.00 in 0.06 in 0.89 in (1993)
Month to date precipitation 1.43 2.27  
Year to date precipitation 7.59 17.63  
Sea Level Pressure  
Sea Level Pressure 30.26 in    
Wind  
Wind Speed 4 mph (NNE)    
Max Wind Speed 14 mph    
Max Gust Speed 18 mph    
Visibility 10 miles    
Events      
T = Trace of Precipitation, MM = Missing Value Source: NWS Daily Summary

Daily Weather History Graph

Daily Weather History Graph

Search for Another Location

Airport:

Trip Planner

Search our weather history database for the weather conditions in past years. The results will help you decide how hot, cold, wet, or windy it might be!

Date:

Astronomy

May. 31, 2013 Rise Set
Actual Time 5:36 AM PDT 8:46 PM PDT
Civil Twilight 5:01 AM PDT 9:20 PM PDT
Nautical Twilight 4:17 AM PDT 10:05 PM PDT
Astronomical Twilight 3:23 AM PDT 10:59 PM PDT
Moon 1:15 AM PDT (5/31) 1:06 PM PDT (5/31)
Length of Visible Light 16h 18m
Length of Day
15h 09m
Waning Gibbous, 50% of the Moon is Illuminated
May 31
Waning Gibbous
May 31
Last Quarter
Jun 8
New
Jun 16
First Quarter
Jun 23
Full

Hourly Weather History & Observations

Time (PDT) Temp. Dew Point Humidity Pressure Visibility Wind Dir Wind Speed Gust Speed Precip Events Conditions
12:53 AM 48.9 °F 44.1 °F 83% 30.28 in 10.0 mi Calm Calm - N/A   Partly Cloudy
1:53 AM 46.9 °F 43.0 °F 86% 30.28 in 10.0 mi Calm Calm - N/A   Clear
2:53 AM 46.9 °F 43.0 °F 86% 30.28 in 10.0 mi Calm Calm - N/A   Overcast
3:53 AM 46.9 °F 44.1 °F 90% 30.28 in 10.0 mi Calm Calm - N/A   Overcast
4:53 AM 45.0 °F 42.1 °F 90% 30.29 in 10.0 mi Calm Calm - N/A   Partly Cloudy
5:53 AM 45.0 °F 42.1 °F 90% 30.29 in 10.0 mi Calm Calm - N/A   Clear
6:53 AM 46.0 °F 43.0 °F 89% 30.31 in 10.0 mi Calm Calm - N/A   Clear
7:17 AM 46.4 °F 44.6 °F 93% 30.31 in 10.0 mi Calm Calm - N/A   Mostly Cloudy
7:53 AM 48.9 °F 45.0 °F 86% 30.31 in 10.0 mi Calm Calm - N/A   Overcast
8:14 AM 51.8 °F 44.6 °F 76% 30.30 in 10.0 mi Calm Calm - N/A   Scattered Clouds
8:50 AM 51.8 °F 44.6 °F 76% 30.31 in 10.0 mi Calm Calm - N/A   Mostly Cloudy
8:53 AM 52.0 °F 46.0 °F 80% 30.32 in 10.0 mi Calm Calm - N/A   Mostly Cloudy
9:45 AM 55.4 °F 46.4 °F 72% 30.31 in 10.0 mi Calm Calm - N/A   Scattered Clouds
9:53 AM 55.9 °F 46.0 °F 69% 30.31 in 10.0 mi Calm Calm - N/A   Partly Cloudy
10:53 AM 61.0 °F 46.0 °F 58% 30.29 in 10.0 mi NE 3.5 mph - N/A   Partly Cloudy
11:33 AM 60.8 °F 46.4 °F 59% 30.28 in 10.0 mi Variable 4.6 mph - N/A   Mostly Cloudy
11:42 AM 60.8 °F 46.4 °F 59% 30.28 in 10.0 mi NNW 3.5 mph - N/A   Scattered Clouds
11:53 AM 61.0 °F 46.0 °F 58% 30.28 in 10.0 mi Variable 4.6 mph - N/A   Partly Cloudy
12:53 PM 66.0 °F 46.0 °F 48% 30.26 in 10.0 mi NE 5.8 mph - N/A   Clear
1:53 PM 69.1 °F 46.0 °F 44% 30.24 in 10.0 mi Variable 5.8 mph - N/A   Clear
2:53 PM 71.1 °F 42.1 °F 35% 30.22 in 10.0 mi Variable 4.6 mph - N/A   Clear
3:53 PM 73.9 °F 43.0 °F 33% 30.21 in 10.0 mi NNE 11.5 mph 16.1 mph N/A   Clear
4:53 PM 75.0 °F 43.0 °F 32% 30.19 in 10.0 mi NNE 10.4 mph - N/A   Clear
5:53 PM 75.9 °F 43.0 °F 31% 30.18 in 10.0 mi North 6.9 mph - N/A   Clear
6:53 PM 73.9 °F 44.1 °F 34% 30.19 in 10.0 mi NNE 12.7 mph - N/A   Clear
7:53 PM 71.1 °F 43.0 °F 36% 30.19 in 10.0 mi North 10.4 mph - N/A   Clear
8:53 PM 68.0 °F 43.0 °F 40% 30.20 in 10.0 mi North 6.9 mph - N/A   Clear
9:53 PM 64.9 °F 43.0 °F 45% 30.22 in 10.0 mi North 4.6 mph - N/A   Clear
10:53 PM 61.0 °F 45.0 °F 56% 30.23 in 10.0 mi NNE 3.5 mph - N/A   Clear
11:53 PM 59.0 °F 46.0 °F 62% 30.23 in 10.0 mi NNW 4.6 mph - N/A   Clear